Toronto Pearson, Ontario

8:50 PM EST on December 06, 2019 (GMT -0500)
Toronto-Pearson International

Weather History for CYYZ - May, 2019

Change the Weather History Date:

Saturday, May 11, 2019

  Actual Average Record
Temperature  
Mean Temperature 44 °F -  
Max Temperature 54 °F 68 °F 75 °F (2004)
Min Temperature 34 °F 46 °F 33 °F (2002)
Degree Days  
Heating Degree Days 21    
Moisture  
Dew Point 33 °F    
Average Humidity 62    
Maximum Humidity 87    
Minimum Humidity 37    
Precipitation  
Precipitation 0.00 in 0.09 in - ()
Sea Level Pressure  
Sea Level Pressure 30.13 in    
Wind  
Wind Speed 6 mph ()    
Max Wind Speed 16 mph    
Max Gust Speed 23 mph    
Visibility 15.0 miles    
Events      
Averages and records for this station are not official NWS values.
T = Trace of Precipitation, MM = Missing Value Source: Averaged Metar Reports

Daily Weather History Graph

Daily Weather History Graph

Search for Another Location

Airport or City:

Astronomy

May. 11, 2019 Rise Set
Actual Time 5:58 AM EDT 8:32 PM EDT
Civil Twilight 5:25 AM EDT 9:05 PM EDT
Nautical Twilight 4:44 AM EDT 9:46 PM EDT
Astronomical Twilight 3:58 AM EDT 10:32 PM EDT
Moon 12:04 PM EDT (5/11) 2:12 AM EDT (5/11)
Length of Visible Light 15h 39m
Length of Day
14h 34m
Waxing Crescent, 46% of the Moon is Illuminated
May 11
Waxing Crescent
May 11
First Quarter
May 18
Full
May 26
Last Quarter
Jun 3
New

Hourly Weather History & Observations

Time (EDT) Temp. Windchill Dew Point Humidity Pressure Visibility Wind Dir Wind Speed Gust Speed Precip Events Conditions
12:00 AM 41.0 °F 39.0 °F 33.8 °F 76% 30.12 in 15.0 mi Variable 3.5 mph - N/A   Clear
1:00 AM 39.2 °F 37.0 °F 33.8 °F 81% 30.13 in 15.0 mi Variable 3.5 mph - N/A   Clear
2:00 AM 38 °F - 32 °F 70% 30.14 in 15 mi NW 2.3 mph - -  
2:00 AM 39.2 °F 37.0 °F 32.0 °F 75% 30.14 in 15.0 mi NW 3.5 mph - N/A   Clear
3:00 AM 37.4 °F 32.1 °F 32.0 °F 81% 30.14 in 15.0 mi South 6.9 mph - N/A   Clear
4:00 AM 37.4 °F 32.1 °F 32.0 °F 81% 30.14 in 15.0 mi South 6.9 mph - N/A   Clear
4:01 AM 35.6 °F 29.9 °F 30.2 °F 81% 30.14 in 15.0 mi South 6.9 mph - N/A   Clear
5:00 AM 35 °F - 31 °F 80% 30.15 in 15 mi South 6.9 mph - -  
5:00 AM 35.6 °F 29.9 °F 32.0 °F 87% 30.15 in 15.0 mi South 6.9 mph - N/A   Partly Cloudy
6:00 AM 35.6 °F - 32.0 °F 87% 30.17 in 15.0 mi Variable 2.3 mph - N/A   Partly Cloudy
7:00 AM 39.2 °F 33.6 °F 32.0 °F 75% 30.17 in 15.0 mi Variable 8.1 mph - N/A   Partly Cloudy
8:00 AM 42 °F - 34 °F 66% 30.19 in 15 mi North 5.8 mph - -   Scattered Clouds
8:00 AM 42.8 °F 39.3 °F 33.8 °F 70% 30.19 in 15.0 mi North 5.8 mph - N/A   Partly Cloudy
9:00 AM 44.6 °F 40.2 °F 37.4 °F 76% 30.20 in 15.0 mi NNE 8.1 mph - N/A   Scattered Clouds
10:00 AM 48.2 °F - 37.4 °F 66% 30.20 in 15.0 mi NNE 4.6 mph - N/A   Mostly Cloudy
11:00 AM 49 °F - 35 °F 46% 30.18 in 15 mi ENE 11.5 mph - -  
12:00 PM 51.8 °F - 37.4 °F 58% 30.19 in 15.0 mi ENE 10.4 mph - N/A   Mostly Cloudy
1:00 PM 55.4 °F - 35.6 °F 47% 30.17 in 15.0 mi ENE 16.1 mph - N/A   Mostly Cloudy
2:00 PM 53 °F - 36 °F 40% 30.13 in 15 mi SE 6.9 mph - -   Scattered Clouds
2:00 PM 51.8 °F - 35.6 °F 54% 30.13 in 15.0 mi SE 6.9 mph 18.4 mph N/A   Mostly Cloudy
3:00 PM 50.0 °F - 33.8 °F 54% 30.14 in 15.0 mi SSE 12.7 mph 23.0 mph N/A   Overcast
4:00 PM 50.0 °F - 33.8 °F 54% 30.13 in 15.0 mi SSE 13.8 mph 21.9 mph N/A   Overcast
5:00 PM 51 °F - 35 °F 43% 30.12 in 15 mi SSE 6.9 mph - -   Overcast
5:00 PM 51.8 °F - 35.6 °F 54% 30.11 in 15.0 mi SE 3.5 mph - N/A   Overcast
6:00 PM 51.8 °F - 35.6 °F 54% 30.11 in 15.0 mi SE 5.8 mph - N/A   Mostly Cloudy
7:00 PM 51.8 °F - 32.0 °F 47% 30.08 in 15.0 mi SSE 16.1 mph - N/A   Overcast
8:00 PM 50 °F - 31 °F 37% 30.08 in 15 mi SE 5.8 mph - -   Overcast
8:00 PM 50.0 °F - 32.0 °F 50% 30.07 in 15.0 mi SE 5.8 mph - N/A   Overcast
9:00 PM 50.0 °F - 30.2 °F 47% 30.06 in 15.0 mi East 11.5 mph - N/A   Overcast
10:00 PM 50.0 °F - 30.2 °F 47% 30.06 in 15.0 mi East 10.4 mph - N/A   Overcast
11:00 PM 50 °F - 33 °F 40% 30.04 in 15 mi East 13.8 mph - -   Overcast
11:00 PM 50.0 °F - 33.8 °F 54% 30.03 in 15.0 mi East 13.8 mph - N/A   Overcast